When you browse on this site, cookies collect data to enhance your experience and personalize the content and advertising you see.
Visit our Privacy Policy to learn more. By continuing to use the site, you agree to this use of cookies and data.
  • en Belgique
  • Liste des pays
  • À 7 jours
  • Température de l'eau
  • Carte satellitaire
  • Carte météo
  • Widgets météo
  • user-avatar
    Se connecter

    Météo par heure à Zabegalovka

    Ce jour, 22 Mars, Vendredi

    Heure Température Précipitation Vent Pression Humidité
    00:00 -2°C° 0 mm 3 m/s 745 mmHg 94%
    01:00 -1°C° 0 mm 3 m/s 745 mmHg 94%
    02:00 -1°C° 0 mm 3 m/s 744 mmHg 95%
    03:00 -1°C° 0.5 mm 3 m/s 743 mmHg 94%
    04:00 -2°C° 0.5 mm 4 m/s 741 mmHg 94%
    05:00 -1°C° 0.5 mm 4 m/s 740 mmHg 94%
    06:00 -1°C° 1.2 mm 4 m/s 740 mmHg 94%
    07:00 0°C° 1.2 mm 3 m/s 739 mmHg 95%
    08:00 0°C° 1.2 mm 3 m/s 739 mmHg 95%
    09:00 -1°C° 0.5 mm 4 m/s 739 mmHg 91%
    10:00 -2°C° 0.5 mm 6 m/s 740 mmHg 86%
    11:00 -2°C° 0.5 mm 7 m/s 740 mmHg 81%
    12:00 -2°C° 0 mm 7 m/s 741 mmHg 80%
    13:00 -2°C° 0 mm 6 m/s 741 mmHg 79%
    14:00 -2°C° 0 mm 6 m/s 742 mmHg 78%
    15:00 -2°C° 0 mm 6 m/s 742 mmHg 80%
    16:00 -1°C° 0 mm 5 m/s 743 mmHg 81%
    17:00 -2°C° 0 mm 5 m/s 743 mmHg 82%
    18:00 -2°C° 0 mm 5 m/s 744 mmHg 84%
    19:00 -2°C° 0 mm 4 m/s 745 mmHg 85%
    20:00 -2°C° 0 mm 4 m/s 745 mmHg 87%
    21:00 -1°C° 0 mm 4 m/s 746 mmHg 88%
    22:00 -1°C° 0 mm 4 m/s 747 mmHg 88%
    23:00 -1°C° 0 mm 4 m/s 748 mmHg 89%

    Demain, 23 Mars, Samedi

    Heure Température Précipitation Vent Pression Humidité
    00:00 -1°C° 0 mm 4 m/s 749 mmHg 90%
    01:00 -1°C° 0 mm 4 m/s 749 mmHg 91%
    02:00 -1°C° 0 mm 3 m/s 750 mmHg 92%
    03:00 -1°C° 0 mm 3 m/s 751 mmHg 93%
    04:00 -2°C° 0 mm 2 m/s 751 mmHg 95%
    05:00 -2°C° 0 mm 2 m/s 752 mmHg 96%
    06:00 -2°C° 0 mm 2 m/s 752 mmHg 96%
    07:00 +1°C° 0 mm 1 m/s 753 mmHg 96%
    08:00 +1°C° 0 mm 1 m/s 753 mmHg 96%
    09:00 +2°C° 0 mm 1 m/s 753 mmHg 95%
    10:00 +2°C° 0 mm 1 m/s 753 mmHg 94%
    11:00 +3°C° 0 mm 1 m/s 753 mmHg 94%
    12:00 +3°C° 0 mm 1 m/s 753 mmHg 92%
    13:00 +3°C° 0 mm 1 m/s 753 mmHg 90%
    14:00 +4°C° 0 mm 1 m/s 752 mmHg 88%
    15:00 +2°C° 0 mm 2 m/s 752 mmHg 89%
    16:00 +2°C° 0 mm 2 m/s 751 mmHg 89%
    17:00 +2°C° 0 mm 2 m/s 751 mmHg 89%
    18:00 0°C° 0 mm 3 m/s 750 mmHg 89%
    19:00 0°C° 0 mm 3 m/s 750 mmHg 89%
    20:00 -2°C° 0 mm 4 m/s 749 mmHg 89%
    21:00 -1°C° 0 mm 4 m/s 749 mmHg 88%
    22:00 -1°C° 0 mm 4 m/s 748 mmHg 87%
    23:00 -1°C° 0 mm 5 m/s 747 mmHg 86%

    Après-demain, 24 Mars, Dimanche

    Heure Température Précipitation Vent Pression Humidité
    00:00 -1°C° 0.2 mm 5 m/s 746 mmHg 87%
    01:00 -1°C° 0.2 mm 5 m/s 745 mmHg 87%
    02:00 -1°C° 0.2 mm 5 m/s 745 mmHg 88%
    03:00 -1°C° 0.7 mm 4 m/s 744 mmHg 89%
    04:00 -1°C° 0.7 mm 4 m/s 743 mmHg 91%
    05:00 -1°C° 0.7 mm 4 m/s 743 mmHg 92%
    06:00 -1°C° 0 mm 4 m/s 742 mmHg 93%
    07:00 0°C° 0 mm 3 m/s 742 mmHg 93%
    08:00 +1°C° 0 mm 3 m/s 742 mmHg 93%
    09:00 +1°C° 0.1 mm 3 m/s 742 mmHg 89%
    10:00 +2°C° 0.1 mm 3 m/s 742 mmHg 85%
    11:00 +2°C° 0.1 mm 3 m/s 741 mmHg 81%
    12:00 +2°C° 0.3 mm 3 m/s 741 mmHg 81%
    13:00 +1°C° 0.3 mm 4 m/s 741 mmHg 81%
    14:00 +1°C° 0.3 mm 4 m/s 741 mmHg 81%
    15:00 +1°C° 0.1 mm 3 m/s 741 mmHg 81%
    16:00 +1°C° 0.1 mm 3 m/s 741 mmHg 81%
    17:00 +1°C° 0.1 mm 2 m/s 741 mmHg 81%
    18:00 -1°C° 0 mm 2 m/s 741 mmHg 83%
    19:00 -2°C° 0 mm 2 m/s 742 mmHg 85%
    20:00 -3°C° 0 mm 2 m/s 742 mmHg 87%
    21:00 -3°C° 0 mm 2 m/s 742 mmHg 88%
    22:00 -4°C° 0 mm 3 m/s 742 mmHg 88%
    23:00 -5°C° 0 mm 3 m/s 742 mmHg 89%

    25 Mars, Lundi

    Heure Température Précipitation Vent Pression Humidité
    00:00 -5°C° 0 mm 3 m/s 742 mmHg 89%
    01:00 -5°C° 0 mm 3 m/s 742 mmHg 89%
    02:00 -5°C° 0 mm 3 m/s 742 mmHg 90%
    03:00 -5°C° 0 mm 3 m/s 742 mmHg 90%
    04:00 -5°C° 0 mm 3 m/s 742 mmHg 90%
    05:00 -4°C° 0 mm 3 m/s 741 mmHg 90%
    06:00 -4°C° 0 mm 4 m/s 742 mmHg 87%
    07:00 -3°C° 0 mm 4 m/s 742 mmHg 83%
    08:00 -3°C° 0 mm 4 m/s 742 mmHg 80%
    09:00 -2°C° 0 mm 4 m/s 742 mmHg 79%
    10:00 -2°C° 0 mm 4 m/s 743 mmHg 78%
    11:00 -2°C° 0 mm 4 m/s 743 mmHg 76%
    12:00 -2°C° 0 mm 4 m/s 743 mmHg 76%
    13:00 0°C° 0 mm 3 m/s 743 mmHg 75%
    14:00 0°C° 0 mm 3 m/s 743 mmHg 75%
    15:00 +1°C° 0 mm 2 m/s 742 mmHg 77%
    16:00 -1°C° 0 mm 2 m/s 742 mmHg 79%
    17:00 +1°C° 0 mm 1 m/s 742 mmHg 81%
    18:00 +1°C° 0.1 mm 1 m/s 742 mmHg 85%
    19:00 0°C° 0.1 mm 1 m/s 742 mmHg 89%
    20:00 -1°C° 0.1 mm 0 m/s 742 mmHg 93%
    21:00 0°C° 1.2 mm 1 m/s 742 mmHg 93%
    22:00 -2°C° 1.2 mm 2 m/s 742 mmHg 93%
    23:00 -4°C° 1.2 mm 3 m/s 742 mmHg 93%

    26 Mars, Mardi

    Heure Température Précipitation Vent Pression Humidité
    00:00 -4°C° 0.2 mm 3 m/s 742 mmHg 92%
    01:00 -4°C° 0.2 mm 2 m/s 742 mmHg 90%
    02:00 -4°C° 0.2 mm 2 m/s 743 mmHg 88%
    03:00 -5°C° 0 mm 2 m/s 743 mmHg 90%
    04:00 -6°C° 0 mm 2 m/s 743 mmHg 91%
    05:00 -7°C° 0 mm 2 m/s 744 mmHg 93%
    06:00 -7°C° 0 mm 3 m/s 744 mmHg 90%
    07:00 -6°C° 0 mm 3 m/s 745 mmHg 86%
    08:00 -6°C° 0 mm 3 m/s 745 mmHg 83%
    09:00 -5°C° 0 mm 3 m/s 745 mmHg 80%
    10:00 -4°C° 0 mm 3 m/s 745 mmHg 76%
    11:00 -2°C° 0 mm 3 m/s 746 mmHg 72%
    12:00 -2°C° 0 mm 3 m/s 745 mmHg 70%
    13:00 -2°C° 0 mm 3 m/s 745 mmHg 67%
    14:00 -1°C° 0 mm 3 m/s 745 mmHg 65%
    15:00 -1°C° 0 mm 3 m/s 744 mmHg 68%
    16:00 -2°C° 0 mm 2 m/s 743 mmHg 71%
    17:00 -2°C° 0 mm 2 m/s 743 mmHg 75%
    18:00 -2°C° 0.1 mm 2 m/s 742 mmHg 78%
    19:00 -4°C° 0.1 mm 3 m/s 742 mmHg 81%
    20:00 -4°C° 0.1 mm 3 m/s 741 mmHg 85%
    21:00 -4°C° 0.6 mm 3 m/s 741 mmHg 88%
    22:00 -4°C° 0.6 mm 3 m/s 740 mmHg 91%
    23:00 -4°C° 0.6 mm 3 m/s 740 mmHg 94%

    27 Mars, Mercredi

    Heure Température Précipitation Vent Pression Humidité
    00:00 -4°C° 0.2 mm 3 m/s 739 mmHg 93%
    01:00 -4°C° 0.2 mm 3 m/s 739 mmHg 92%
    02:00 -5°C° 0.2 mm 3 m/s 739 mmHg 91%
    03:00 -5°C° 0 mm 3 m/s 739 mmHg 91%
    04:00 -6°C° 0 mm 3 m/s 739 mmHg 92%
    05:00 -6°C° 0 mm 3 m/s 740 mmHg 92%
    06:00 -6°C° 0.2 mm 3 m/s 740 mmHg 90%
    07:00 -5°C° 0.2 mm 4 m/s 741 mmHg 89%
    08:00 -5°C° 0.2 mm 4 m/s 741 mmHg 87%
    09:00 -4°C° 0.1 mm 4 m/s 742 mmHg 85%
    10:00 -3°C° 0.1 mm 4 m/s 743 mmHg 83%
    11:00 -2°C° 0.1 mm 4 m/s 744 mmHg 81%
    12:00 -2°C° 0.1 mm 4 m/s 745 mmHg 80%
    13:00 -2°C° 0.1 mm 4 m/s 746 mmHg 79%
    14:00 -2°C° 0.1 mm 4 m/s 746 mmHg 78%
    15:00 -1°C° 0.1 mm 3 m/s 747 mmHg 79%
    16:00 -1°C° 0.1 mm 3 m/s 748 mmHg 79%
    17:00 -1°C° 0.1 mm 3 m/s 749 mmHg 80%
    18:00 -2°C° 0 mm 2 m/s 750 mmHg 83%
    19:00 -3°C° 0 mm 2 m/s 750 mmHg 86%
    20:00 -4°C° 0 mm 2 m/s 751 mmHg 89%
    21:00 -5°C° 0 mm 2 m/s 752 mmHg 90%
    22:00 -6°C° 0 mm 2 m/s 752 mmHg 90%
    23:00 -6°C° 0 mm 2 m/s 753 mmHg 90%
    Voir plus